カタログに戻る

CZ-6A DEB

運用中PO
NORAD 55537·DEBRIS·🇨🇳 China

打ち上げ Nov 11, 2022 から Taiyuan Satellite Launch Center

Loading…

次のパス (今後24時間)

TLE

最新Source: Space-Track

元期: Sep 13, 2026, 15:45 UTC

1 55537U 22151YK  26256.65655442  .00008545  00000-0  12581-2 0  9995
2 55537  98.6211 327.3879 0063821   9.3950 350.8434 14.74266432197844

AllMySatでCZ-6A DEBをリアルタイム追跡

Download on the App Store